FENGYUN 1C DEB, 30665

Orbit data source: Space-Track

FENGYUN 1C DEB, 30665 is space debris in SSO originally from a launch on Mon, 10 May 1999 UTC launched from the Taiyaun Space Center, China (TSC). Fengyun 1C debris stems from the Chinese weather satellite Fengyun-1C, which was intentionally destroyed by a Chinese anti-satellite missile in 2007. This event dramatically increased the amount of space debris, with thousands of trackable fragments posing hazards to satellites and human spaceflight. The Fengyun 1C debris cloud has become a focal point in discussions about space sustainability and the need for international regulations to prevent the creation of new debris.

Loading next visibility...
Identifier
30665, 1999-025APX
Orbit
SSO
Country
Flag of CNCN / PRC
Related business
Manufacturer
Unknown
Mission
Spacecraft
Bus & Motor
Unknown
Mass
Unknown
Launch date (UTC)
1999-05-10 (27 years ago)
Launch vehicle
Unknown
Launch site
Taiyaun Space Center, China (TSC)
Object type
Payload
Rocket body
Debris
Shape & HBR
Unknown shape, 0.1 m
Radar Cross Section
Medium (>0.1 m² and <1 m²)

Expand to show TLE details & history
Last TLE update: 1 day ago

TLE from 1 day ago
0 FENGYUN 1C DEB
1 30665U 99025APX 26237.44318503  .00001509  00000-0  80740-3 0  9990
2 30665  99.2210 221.5424 0066304 204.3094 307.9797 14.13632921995812
Epoch: 2026-08-25T10:38Z
TLE epoch observation values (Epoch: 2026-08-25T10:38:11.186Z)
Latitude
27.95825°
Longitude
-86.79784°
Altitude
821.087 km
Speed
7.46 km/s
True Right ascension
03h 05m 50s
True Declination
27° 49' 02"
Sunlit
Object was in daylight at epoch
Visualization orbit readout
Latitude
Unknown
Longitude
Unknown
Altitude
Unknown
Speed
Unknown
Apparent Right ascension
Unknown
Apparent Declination
Unknown
Sunlit
N/A
Visualization observer readout
Local Sidereal Time
12:09:22
Azimuth
Unknown
Elevation
Unknown
Doppler factor
Unknown
Orbital elements
Apogee altitude
892.045 km
Perigee altitude
796.272 km
Semi-major axis
7,222.296 km
Eccentricity
0.00663
Inclination
99.221°
RAAN
221.5424°
Arg. of periapsis
204.3094°
True anomaly
307.37775°
Mean anomaly
307.9797°
Eccentric anomaly
307.67903°
Mean motion
3.53615 °/min
Orbital period
101.81 mins
BSTAR
0.0008074
Loading maneuver chart data...
Computing Atmospheric mass density...
Loading historical data...
Loading historical data...
Loading historical data...
Loading historical data...
Loading historical data...
Loading historical data...
Loading historical data...

Documentation

Showing up to 5 results
|